Location: Pea Ridge
(34.0640°N, 87.8670°W)
Time: 06:58:53
(UTC+00:00)

A-11 Canister half - Pass Details

Date: 17 December 2025
Orbit: 1526 x 1682 km, 47.3° (Epoch: 20 January)

Event Time Altitude Azimuth Distance (km) Brightness Sun altitude
Rises 00:45:59 0° 285° (WNW) 4,884 12.6 -24.5°
Reaches altitude 10° 00:52:37 10° 254° (WSW) 3,853 12.1 -25.8°
Maximum altitude 00:54:59 11° 240° (WSW) 3,748 11.9 -26.3°
Drops below altitude 10° 00:57:22 10° 225° (SW) 3,817 11.8 -26.8°
Sets 01:03:53 0° 193° (SSW) 4,753 11.9 -28.1°
